671  
ASUS44 KSHV 140710  
RWRSHV  
 
THE FOUR STATE AREA WEATHER ROUNDUP  
NATIONAL WEATHER SERVICE SHREVEPORT LA  
200 AM CDT WED APR 14 2021  
 
NOTE: "FAIR" INDICATES FEW OR NO CLOUDS BELOW 12000 FEET  
WITH NO SIGNIFICANT WEATHER AND/OR S TO VISIBILITY
.  
 
!LAZ001-LAZ014-TXZ097-140800  
SHREVEPORT...MONROE...TEXARKANA RADIOS  
 
CITY SKY/WX TMP DP RH WIND PRES REMARKS
 
SHREVEPORT CLOUDY 66 58 75 SE7 29.99S  
MONROE MOCLDY 61 57 87 CALM 30.03F  
NATCHITOCHES CLOUDY 63 59 88 E5 29.99F  
TEXARKANA CLOUDY 65 53 65 E9 30.00F  

 
 
!LAZ001-LAZ014-TXZ097-140800  
OTHER LOCATIONS...  
 
CITY SKY/WX TMP DP RH WIND PRES REMARKS
 
DOWNTOWN SHV CLOUDY 65 59 81 SE7 29.99F  
BOSSIER CITY CLOUDY 64 58 82 SE5 29.99F  
RUSTON CLOUDY 59 56 88 CALM 30.06F  
LITTLE ROCK CLOUDY 60 48 64 NE7 30.06F  
EL DORADO MOCLDY 62 56 80 CALM 30.04R  
JACKSON PTCLDY 55 50 83 CALM 30.05F  
NEW ORLEANS CLEAR 70 60 70 S8 29.99F  
HOUSTON CLOUDY 71 65 81 SE15 29.93F  
LUFKIN CLOUDY 68 63 84 SE5 29.96F  
TYLER CLOUDY 68 65 90 S6 29.96S  
DAL FT WORTH CLOUDY 67 51 56 N8 29.96S  

 
 
!TXZ136-TXZ165-140800  
TYLER...LUFKIN RADIOS  
 
CITY SKY/WX TMP DP RH WIND PRES REMARKS
 
TYLER CLOUDY 68 65 90 S6 29.96S  
GILMER PTSUNNY 68 62 82 SE9 29.95F  
LONGVIEW CLOUDY 67 61 81 SE7 29.95F  
LUFKIN CLOUDY 68 63 84 SE5 29.96F  

 
 
!TXZ136-TXZ165-140800  
OTHER LOCATIONS...  
 
CITY SKY/WX TMP DP RH WIND PRES REMARKS
 
NACOGDOCHES CLOUDY 67 62 84 SE5 29.97F  
BEAUMONT CLOUDY 72 65 78 SE14G29 29.95S  
HOUSTON CLOUDY 71 65 81 SE15 29.93F  
COLLEGE STN CLOUDY 70 66 87 SE8 29.94F  
AUSTIN CLOUDY 71 62 73 N5 29.92S  
DAL FT WORTH CLOUDY 67 51 56 N8 29.96S  
TEXARKANA CLOUDY 65 53 65 E9 30.00F  
SHREVEPORT CLOUDY 66 58 75 SE7 29.99S  
FORT POLK CLOUDY 60 58 94 E3 29.97F  
LAKE CHARLES CLOUDY 73 64 73 SE14 29.96F  

 
 
 
CLICK HERE TO GO TO PREVIOUS BULLETINS.

The Nexlab LA Page
The Nexlab TX Page
The Nexlab AR Page
The Nexlab OK Page Main Text Page